PBO Station Position Time Series. Reference Frame : NAM14
Format Version,1.1.0
4-character ID,P233
Station name,Hollister_CN2006
Begin Date, 2006-08-22
End Date, 2019-10-07
Release Date, 2019-10-08
Reference position, 36.8004266603 North Latitude, -121.4202851641 East Longitude, 196.82702 meters elevation,
Date, North (mm), East (mm), Vertical (mm), North Std. Deviation (mm), East Std. Deviation (mm),              Vertical Std. Deviation (mm), Quality,
2006-08-22,0.00, 0.00, 0.00, 1.98, 1.64, 7.45, repro,
2006-08-23,-1.00, 1.06, 6.69, 1.96, 1.63, 7.42, repro,
2006-08-24,-0.20, 0.53, 6.80, 1.97, 1.63, 7.40, repro,
2006-08-25,-1.38, 1.68, 3.98, 2.01, 1.67, 7.68, repro,
2006-08-26,-0.26, -0.02, 6.01, 2.08, 1.73, 7.93, repro,
2006-08-27,0.43, 0.40, 2.44, 2.04, 1.73, 7.85, repro,
2006-08-28,-0.75, 0.12, -0.78, 2.04, 1.71, 7.82, repro,
2006-08-29,0.35, 1.32, -2.79, 2.03, 1.72, 7.84, repro,
2006-08-30,0.03, 0.72, -0.82, 2.11, 1.75, 8.04, repro,
2006-08-31,-0.40, 1.04, -0.49, 2.05, 1.74, 7.93, repro,
2006-09-01,-0.61, 0.28, -3.37, 2.09, 1.76, 8.04, repro,
2006-09-02,-0.56, 1.29, -4.71, 2.04, 1.72, 7.83, repro,
2006-09-03,-0.41, -0.14, -3.62, 2.04, 1.72, 7.84, repro,
2006-09-04,1.13, 0.62, -5.13, 2.10, 1.74, 7.97, repro,
2006-09-05,0.47, 1.47, -13.52, 2.11, 1.76, 8.04, repro,
2006-09-06,0.96, 0.80, 1.62, 2.04, 1.73, 7.86, repro,
2006-09-07,-0.56, -0.75, 6.15, 2.13, 1.79, 8.14, repro,
2006-09-08,-0.21, -0.41, -1.99, 2.08, 1.76, 8.06, repro,
2006-09-09,-0.93, -0.28, 4.09, 2.00, 1.67, 7.53, repro,
2006-09-10,0.53, 0.01, -6.06, 2.00, 1.67, 7.55, repro,
2006-09-11,0.62, 0.36, 1.24, 2.01, 1.69, 7.62, repro,
2006-09-12,0.07, -0.80, 2.48, 2.02, 1.69, 7.66, repro,
2006-09-13,0.06, -0.10, 5.89, 2.01, 1.68, 7.62, repro,
2006-09-14,-1.73, -1.76, 0.48, 2.10, 1.76, 7.83, repro,
2006-09-15,-0.40, -0.03, 2.71, 2.04, 1.66, 7.56, repro,
2006-09-16,-0.70, 0.05, 6.73, 1.99, 1.64, 7.47, repro,
2006-09-17,0.80, -0.22, 5.07, 1.98, 1.64, 7.44, repro,
2006-09-18,0.22, 0.38, 5.45, 1.99, 1.63, 7.45, repro,
2006-09-19,-0.91, 0.81, 3.21, 1.98, 1.64, 7.50, repro,
2006-09-20,0.66, -0.36, -1.57, 1.98, 1.63, 7.42, repro,
2006-09-21,-0.47, -0.41, 5.23, 2.00, 1.68, 7.58, repro,
2006-09-22,0.45, -0.44, 0.72, 2.10, 1.74, 7.89, repro,
2006-09-23,0.71, -0.19, -0.67, 2.22, 1.85, 8.56, repro,
2006-09-24,0.09, 0.12, -0.53, 2.14, 1.71, 7.97, repro,
2006-09-25,0.02, 0.45, -3.96, 2.09, 1.67, 7.71, repro,
2006-09-26,-0.32, -0.21, -3.79, 2.09, 1.73, 7.70, repro,
2006-09-27,0.42, 0.20, -1.61, 2.11, 1.76, 7.92, repro,
2006-09-28,0.09, 0.50, 3.37, 2.11, 1.77, 7.84, repro,
2006-09-29,0.65, 0.23, 4.86, 2.04, 1.65, 7.55, repro,
2006-09-30,0.23, 0.03, 5.06, 2.02, 1.66, 7.66, repro,
2006-10-01,0.95, -0.51, 5.38, 2.04, 1.69, 7.68, repro,
2006-10-02,0.72, -0.54, -0.95, 2.05, 1.73, 7.67, repro,
2006-10-03,0.43, -0.20, -2.97, 2.14, 1.79, 8.00, repro,
2006-10-04,0.28, -0.76, 2.09, 2.04, 1.65, 7.56, repro,
2006-10-05,0.09, -0.79, 11.59, 2.07, 1.68, 7.86, repro,
2006-10-06,0.09, 0.20, 0.13, 2.05, 1.66, 7.75, repro,
2006-10-07,-0.07, 1.08, -0.34, 2.06, 1.72, 7.88, repro,
2006-10-08,-0.08, 0.42, -3.38, 2.07, 1.72, 7.91, repro,
2006-10-09,0.71, -0.40, 0.87, 2.02, 1.68, 7.66, repro,
2006-10-10,-0.45, -0.43, -2.64, 2.03, 1.67, 7.69, repro,
2006-10-11,-1.09, -0.51, -0.91, 2.01, 1.66, 7.61, repro,
2006-10-12,-0.93, 0.06, 7.11, 2.02, 1.65, 7.52, repro,
2006-10-13,-1.03, 0.29, 8.99, 1.99, 1.64, 7.50, repro,
2006-10-14,1.06, 1.20, 4.58, 2.00, 1.68, 7.68, repro,
2006-10-15,0.00, -0.14, 8.71, 2.17, 1.86, 8.59, repro,
2006-10-16,0.71, 0.25, 16.17, 2.02, 1.66, 7.64, repro,
2006-10-17,-0.86, -0.68, 16.11, 2.08, 1.72, 7.96, repro,
2006-10-18,0.85, 1.07, 3.56, 2.08, 1.79, 8.14, repro,
2006-10-19,-0.17, 0.68, 1.06, 2.17, 1.74, 8.33, repro,
2006-10-20,0.86, -0.73, 0.31, 2.28, 1.95, 9.26, repro,
2006-10-21,-0.08, 0.43, 6.01, 2.25, 1.88, 8.68, repro,
2006-10-22,-0.99, 0.06, 4.27, 2.01, 1.70, 7.71, repro,
2006-10-23,-1.25, 0.37, -1.29, 2.15, 1.78, 8.24, repro,
2006-10-24,-1.15, -0.50, 1.39, 2.15, 1.75, 8.27, repro,
2006-10-25,-0.29, 0.39, 0.57, 2.21, 1.81, 8.53, repro,
2006-10-26,0.46, -0.18, 2.61, 2.01, 1.72, 7.78, repro,
2006-10-27,0.76, 0.46, -3.20, 2.00, 1.75, 7.83, repro,
2006-10-28,-0.65, 1.01, 2.15, 2.16, 1.79, 8.35, repro,
2006-10-29,-0.57, 1.15, 8.23, 2.01, 1.71, 7.78, repro,
2006-10-30,-1.04, 1.29, 1.90, 1.97, 1.68, 7.63, repro,
2006-10-31,-0.88, -0.28, 5.84, 1.97, 1.66, 7.57, repro,
2006-11-01,0.57, 0.31, -0.54, 2.00, 1.71, 7.74, repro,
2006-11-02,1.70, 1.24, 3.36, 2.08, 1.80, 8.12, repro,
2006-11-03,-0.71, 1.52, 6.62, 2.01, 1.72, 7.84, repro,
2006-11-04,0.34, 0.80, -0.38, 2.04, 1.72, 7.86, repro,
2006-11-05,0.80, 0.80, 0.92, 2.04, 1.71, 7.81, repro,
2006-11-06,-1.39, -0.22, -3.21, 1.94, 1.64, 7.48, repro,
2006-11-07,1.95, 0.23, -4.54, 2.15, 1.81, 8.22, repro,
2006-11-08,0.03, 0.68, 10.89, 2.06, 1.70, 7.89, repro,
2006-11-09,-0.08, 0.99, 3.90, 2.10, 1.79, 8.20, repro,
2006-11-10,0.26, 0.44, 2.92, 2.01, 1.67, 7.76, repro,
2006-11-11,0.47, 0.38, -1.98, 2.03, 1.71, 7.86, repro,
2006-11-12,0.53, -0.26, -0.72, 2.09, 1.78, 7.95, repro,
2006-11-13,1.45, 0.30, -0.78, 2.15, 1.85, 8.13, repro,
2006-11-14,0.37, 1.42, 3.63, 1.97, 1.64, 7.54, repro,
2006-11-15,0.37, -0.02, 1.31, 1.93, 1.64, 7.42, repro,
2006-11-16,-0.27, 0.18, -1.95, 1.94, 1.64, 7.45, repro,
2006-11-17,1.21, 0.11, 0.78, 1.93, 1.63, 7.36, repro,
2006-11-18,0.79, 0.14, -3.64, 1.93, 1.62, 7.24, repro,
2006-11-19,0.21, 0.15, -8.16, 1.95, 1.63, 7.37, repro,
2006-11-20,0.17, -0.03, -7.11, 1.94, 1.62, 7.35, repro,
2006-11-21,1.11, 0.02, 0.33, 1.94, 1.64, 7.41, repro,
2006-11-22,0.01, 0.19, -3.16, 1.93, 1.64, 7.38, repro,
2006-11-23,-0.16, -0.20, -7.76, 1.96, 1.67, 7.51, repro,
2006-11-24,0.24, -0.79, -2.47, 2.01, 1.70, 7.66, repro,
2006-11-25,-0.33, -0.85, -4.30, 1.97, 1.63, 7.43, repro,
2006-11-26,0.56, -0.24, -2.11, 1.96, 1.65, 7.48, repro,
2006-11-27,-0.13, -1.51, -1.96, 1.98, 1.66, 7.55, repro,
2006-11-28,-0.39, -1.02, -5.68, 1.96, 1.65, 7.46, repro,
2006-11-29,-0.81, -0.15, -2.67, 1.94, 1.64, 7.36, repro,
2006-11-30,-0.01, 0.66, -4.62, 1.94, 1.63, 7.34, repro,
2006-12-01,-0.50, 0.83, -5.20, 1.95, 1.64, 7.41, repro,
2006-12-02,-0.59, 0.23, -7.22, 1.94, 1.65, 7.41, repro,
2006-12-03,1.19, 0.05, -7.80, 2.02, 1.68, 7.61, repro,
2006-12-04,0.88, 0.13, -12.39, 1.98, 1.65, 7.46, repro,
2006-12-05,0.05, 0.21, -5.74, 1.96, 1.69, 7.45, repro,
2006-12-06,0.26, -0.01, -2.11, 2.13, 1.84, 8.22, repro,
2006-12-07,0.63, 0.10, -3.18, 1.96, 1.72, 7.57, repro,
2006-12-08,0.49, -0.40, 1.31, 2.02, 1.78, 7.72, repro,
2006-12-09,-0.59, -0.79, -6.89, 2.01, 1.73, 7.62, repro,
2006-12-10,-0.60, -1.03, -2.60, 2.01, 1.73, 7.65, repro,
2006-12-11,0.49, -0.39, -5.30, 1.93, 1.66, 7.42, repro,
2006-12-12,0.94, 0.12, -9.31, 2.01, 1.74, 7.68, repro,
2006-12-13,1.19, -0.68, -3.19, 1.96, 1.74, 7.62, repro,
2006-12-14,2.15, -1.28, -2.84, 1.95, 1.68, 7.50, repro,
2006-12-15,0.88, -0.29, -5.56, 2.01, 1.75, 7.73, repro,
2006-12-16,0.50, -0.50, -1.38, 2.04, 1.80, 7.71, repro,
2006-12-17,-1.27, -0.38, -5.02, 2.04, 1.83, 8.02, repro,
2006-12-18,0.36, 0.33, -1.18, 2.27, 2.02, 9.04, repro,
2006-12-19,0.72, 0.43, -4.70, 2.08, 1.91, 8.19, repro,
2006-12-20,-0.76, 0.13, -3.16, 2.07, 1.87, 7.95, repro,
2006-12-21,0.47, -0.18, -4.90, 1.93, 1.79, 7.59, repro,
2006-12-22,0.21, -1.33, 0.40, 2.14, 1.94, 8.26, repro,
2006-12-23,1.19, 0.26, -1.11, 2.05, 1.85, 8.08, repro,
2006-12-24,0.96, 0.47, -6.39, 1.94, 1.68, 7.53, repro,
2006-12-25,0.08, -0.15, -9.81, 1.99, 1.79, 7.68, repro,
2006-12-26,1.51, -0.43, -1.40, 1.97, 1.73, 7.59, repro,
2006-12-27,-1.87, -0.77, -8.39, 2.04, 1.81, 8.00, repro,
2006-12-28,0.06, 0.17, -2.04, 2.26, 2.08, 9.01, repro,
2006-12-29,0.81, -1.34, -9.38, 2.06, 1.82, 7.95, repro,
2006-12-30,0.86, -0.35, -5.19, 2.01, 1.77, 7.77, repro,
2006-12-31,1.25, -1.15, -1.50, 2.20, 1.99, 8.67, repro,
2007-01-01,0.21, -1.10, -3.81, 2.24, 2.06, 8.84, repro,
2007-01-02,-0.38, 0.75, -5.13, 2.12, 1.94, 8.35, repro,
2007-01-03,1.03, -0.19, -2.03, 1.96, 1.75, 7.75, repro,
2007-01-04,0.26, -1.42, -3.42, 1.94, 1.69, 7.52, repro,
2007-01-05,0.70, -1.63, -1.49, 1.95, 1.75, 7.63, repro,
2007-01-06,1.32, 0.60, -7.63, 1.96, 1.76, 7.67, repro,
2007-01-07,1.92, 0.03, -16.62, 2.02, 1.75, 7.68, repro,
2007-01-08,0.22, -0.46, -9.52, 1.99, 1.73, 7.68, repro,
2007-01-09,0.79, -0.17, -10.75, 1.98, 1.69, 7.47, repro,
2007-01-10,-0.01, 0.62, -8.01, 1.99, 1.72, 7.56, repro,
2007-01-11,1.17, -1.00, -6.09, 2.03, 1.68, 7.65, repro,
2007-01-12,0.78, -0.12, -5.90, 1.94, 1.63, 7.38, repro,
2007-01-13,0.21, 0.41, -14.10, 1.90, 1.61, 7.17, repro,
2007-01-14,0.40, -0.47, -12.20, 1.90, 1.61, 7.19, repro,
2007-01-15,0.27, -0.16, -14.40, 1.90, 1.61, 7.14, repro,
2007-01-16,1.27, 0.25, -11.16, 1.93, 1.61, 7.20, repro,
2007-01-17,1.08, -0.05, -3.99, 1.94, 1.66, 7.42, repro,
2007-01-18,0.90, 0.04, -14.51, 1.97, 1.71, 7.55, repro,
2007-01-19,0.64, 0.19, -10.20, 2.06, 1.76, 7.93, repro,
2007-01-20,0.50, 0.15, -9.02, 2.00, 1.69, 7.59, repro,
2007-01-21,0.29, 0.61, -11.52, 1.90, 1.62, 7.20, repro,
2007-01-22,-0.42, 1.19, -10.78, 1.89, 1.61, 7.13, repro,
2007-01-23,0.88, 0.06, -16.52, 1.90, 1.61, 7.15, repro,
2007-01-24,-0.31, 0.62, -12.37, 1.91, 1.61, 7.17, repro,
2007-01-25,0.69, 0.78, -16.35, 1.95, 1.65, 7.24, repro,
2007-01-26,0.32, 0.06, -12.64, 1.89, 1.61, 7.10, repro,
2007-01-27,-0.40, 0.94, -7.39, 1.89, 1.61, 7.11, repro,
2007-01-28,-0.00, 0.94, -9.17, 1.89, 1.61, 7.08, repro,
2007-01-29,-0.40, 0.79, -4.36, 1.91, 1.61, 7.11, repro,
2007-01-30,-0.25, -0.37, -10.33, 1.90, 1.60, 7.09, repro,
2007-01-31,-0.96, -0.23, -4.69, 1.89, 1.60, 7.09, repro,
2007-02-01,-0.69, 0.95, -4.02, 1.92, 1.64, 7.23, repro,
2007-02-02,-0.20, 1.12, -8.10, 1.93, 1.62, 7.23, repro,
2007-02-03,0.15, 0.65, -12.24, 1.92, 1.62, 7.20, repro,
2007-02-04,-0.54, 1.25, -7.69, 1.89, 1.60, 7.07, repro,
2007-02-05,-0.16, 0.72, -8.25, 1.91, 1.61, 7.15, repro,
2007-02-06,-0.39, 0.96, -14.22, 1.94, 1.61, 7.18, repro,
2007-02-07,-0.34, -0.09, -6.64, 1.89, 1.60, 7.10, repro,
2007-02-08,0.63, 1.25, -6.79, 1.98, 1.68, 7.44, repro,
2007-02-09,0.09, 1.43, -5.81, 1.91, 1.65, 7.23, repro,
2007-02-10,-1.36, 0.03, -2.04, 1.90, 1.60, 7.12, repro,
2007-02-11,-1.05, -1.98, -1.63, 1.94, 1.67, 7.43, repro,
2007-02-12,0.21, 0.40, -14.19, 1.89, 1.60, 7.12, repro,
2007-02-13,0.00, 1.24, -7.74, 1.89, 1.61, 7.13, repro,
2007-02-14,0.53, 0.89, -11.48, 1.89, 1.60, 7.02, repro,
2007-02-15,1.01, 1.57, -10.35, 1.91, 1.62, 7.15, repro,
2007-02-16,0.78, 1.81, -10.59, 1.92, 1.60, 7.14, repro,
2007-02-17,-0.66, 2.02, -6.70, 1.96, 1.66, 7.32, repro,
2007-02-18,-0.12, 0.82, -5.45, 1.91, 1.61, 7.20, repro,
2007-02-19,0.28, 0.22, -0.57, 1.90, 1.62, 7.17, repro,
2007-02-20,-0.91, 0.78, -1.14, 1.89, 1.61, 7.12, repro,
2007-02-21,-0.40, 0.44, -2.55, 1.90, 1.60, 7.10, repro,
2007-02-22,-3.78, 0.22, -7.65, 1.91, 1.60, 7.17, repro,
2007-02-23,0.14, 0.53, -3.91, 2.00, 1.69, 7.48, repro,
2007-02-24,0.99, 0.87, -5.20, 1.90, 1.61, 7.14, repro,
2007-02-25,-2.58, 1.07, -5.09, 1.90, 1.60, 7.14, repro,
2007-02-26,-2.17, 1.18, -4.65, 1.90, 1.60, 7.13, repro,
2007-02-27,-0.89, 0.79, -7.03, 1.90, 1.59, 7.11, repro,
2007-02-28,-1.35, 0.18, -0.13, 1.89, 1.59, 7.08, repro,
2007-03-01,0.99, 0.84, -3.15, 1.95, 1.68, 7.40, repro,
2007-03-02,-0.05, 0.30, -10.22, 1.96, 1.68, 7.43, repro,
2007-03-03,0.48, 1.22, -13.77, 1.93, 1.63, 7.26, repro,
2007-03-04,0.55, 1.58, -7.98, 1.93, 1.64, 7.27, repro,
2007-03-05,0.67, 1.28, -8.89, 1.94, 1.69, 7.44, repro,
2007-03-06,-0.18, 0.12, -5.15, 1.92, 1.65, 7.30, repro,
2007-03-07,-0.52, 0.47, -0.56, 1.94, 1.67, 7.40, repro,
2007-03-08,-0.56, 1.34, -4.49, 1.95, 1.65, 7.38, repro,
2007-03-09,-0.71, -0.36, -10.40, 1.93, 1.63, 7.27, repro,
2007-03-10,0.36, 0.27, -6.67, 1.96, 1.66, 7.42, repro,
2007-03-11,0.23, 0.96, -4.53, 1.92, 1.65, 7.32, repro,
2007-03-12,-0.30, 0.54, -7.92, 1.94, 1.66, 7.37, repro,
2007-03-13,-1.02, 0.68, -0.41, 1.93, 1.62, 7.24, repro,
2007-03-14,-0.75, 1.77, 0.32, 1.92, 1.60, 7.17, repro,
2007-03-15,-0.21, 1.06, -8.80, 1.94, 1.66, 7.34, repro,
2007-03-16,-0.69, 1.12, -8.96, 1.92, 1.61, 7.19, repro,
2007-03-17,-0.86, 0.85, -4.38, 1.89, 1.59, 7.08, repro,
2007-03-18,-0.28, 0.52, 5.86, 1.94, 1.64, 7.29, repro,
2007-03-19,-0.69, 0.08, -0.26, 1.96, 1.64, 7.31, repro,
2007-03-20,0.20, 0.47, 2.54, 1.97, 1.61, 7.26, repro,
2007-03-21,-0.71, -0.34, 2.85, 1.98, 1.64, 7.37, repro,
2007-03-22,-0.47, -0.18, -0.22, 1.96, 1.64, 7.41, repro,
2007-03-23,-0.16, -0.53, -1.47, 1.94, 1.63, 7.30, repro,
2007-03-24,-0.06, -0.43, 2.18, 1.95, 1.64, 7.36, repro,
2007-03-25,0.05, 0.54, -1.25, 1.94, 1.59, 7.20, repro,
2007-03-26,-0.62, -1.41, -2.77, 1.92, 1.62, 7.23, repro,
2007-03-27,-1.67, -1.90, -6.92, 1.94, 1.60, 7.19, repro,
2007-03-28,-0.34, 0.25, -11.50, 1.95, 1.61, 7.23, repro,
2007-03-29,-0.80, 0.18, -0.69, 1.92, 1.61, 7.20, repro,
2007-03-30,-0.72, 0.51, -8.21, 1.93, 1.60, 7.18, repro,
2007-03-31,-0.04, 0.64, -4.75, 1.93, 1.58, 7.10, repro,
2007-04-01,0.27, 0.95, -0.54, 1.90, 1.58, 7.08, repro,
2007-04-02,-0.65, 0.93, -2.24, 1.90, 1.59, 7.07, repro,
2007-04-03,-0.06, -0.38, -6.71, 1.94, 1.64, 7.32, repro,
2007-04-04,-1.13, 1.00, -4.24, 2.08, 1.79, 7.87, repro,
2007-04-05,-2.31, -0.00, -1.25, 2.03, 1.74, 7.61, repro,
2007-04-06,-0.97, 0.33, -6.21, 2.00, 1.70, 7.48, repro,
2007-04-07,0.46, -0.71, 1.62, 1.94, 1.61, 7.16, repro,
2007-04-08,-1.42, 0.20, 4.27, 1.91, 1.60, 7.13, repro,
2007-04-09,-1.03, 0.57, -3.31, 1.92, 1.59, 7.14, repro,
2007-04-10,0.19, -0.13, -0.35, 1.96, 1.63, 7.33, repro,
2007-04-11,-1.09, 0.17, 3.44, 1.92, 1.57, 7.09, repro,
2007-04-12,-0.53, 0.70, 2.43, 1.91, 1.58, 7.08, repro,
2007-04-13,-0.25, 0.73, -2.82, 1.92, 1.60, 7.19, repro,
2007-04-14,0.23, 0.71, -2.70, 1.92, 1.60, 7.15, repro,
2007-04-15,-1.16, -0.75, 0.21, 1.93, 1.59, 7.16, repro,
2007-04-16,0.02, 0.37, -2.05, 1.92, 1.58, 7.17, repro,
2007-04-17,0.66, -0.90, -0.86, 1.92, 1.58, 7.14, repro,
2007-04-18,-1.81, -0.07, -5.45, 1.92, 1.59, 7.13, repro,
2007-04-19,-0.71, -0.69, -3.01, 1.92, 1.59, 7.14, repro,
2007-04-20,-0.11, -0.86, 1.63, 1.92, 1.59, 7.12, repro,
2007-04-21,0.26, -0.48, -5.69, 1.93, 1.59, 7.17, repro,
2007-04-22,-0.48, -0.59, 1.37, 1.92, 1.59, 7.16, repro,
2007-04-23,-0.59, 0.66, -1.71, 1.94, 1.61, 7.18, repro,
2007-04-24,-0.59, 0.17, -8.67, 1.98, 1.67, 7.34, repro,
2007-04-25,-0.87, -1.06, -3.87, 1.94, 1.61, 7.18, repro,
2007-04-26,0.32, 0.27, -3.48, 1.93, 1.59, 7.16, repro,
2007-04-27,0.08, 0.26, -4.79, 1.92, 1.57, 7.12, repro,
2007-04-28,-0.21, -0.40, -2.07, 2.00, 1.65, 7.38, repro,
2007-04-29,-1.41, -0.34, -4.56, 1.93, 1.59, 7.16, repro,
2007-04-30,0.39, -0.56, -2.94, 1.92, 1.58, 7.12, repro,
2007-05-01,-0.74, -0.70, -5.31, 1.92, 1.57, 7.12, repro,
2007-05-02,-0.19, 0.08, -1.89, 2.01, 1.59, 7.44, repro,
2007-05-03,1.26, -0.45, -7.39, 2.04, 1.62, 7.52, repro,
2007-05-04,0.01, -0.29, 0.41, 1.94, 1.58, 7.20, repro,
2007-05-05,-1.03, -1.45, -8.27, 1.97, 1.64, 7.35, repro,
2007-05-06,-0.20, 0.28, -3.20, 1.99, 1.59, 7.33, repro,
2007-05-07,-0.13, 1.64, -8.28, 1.94, 1.57, 7.16, repro,
2007-05-08,0.07, 0.00, -4.19, 1.95, 1.57, 7.16, repro,
2007-05-09,-1.24, 0.49, -2.52, 1.93, 1.57, 7.17, repro,
2007-05-10,0.35, 0.83, -0.61, 2.08, 1.69, 7.76, repro,
2007-05-11,0.23, -0.09, -7.53, 2.05, 1.65, 7.64, repro,
2007-05-12,-0.49, -0.66, -2.67, 1.94, 1.57, 7.13, repro,
2007-05-13,0.24, 0.09, -1.95, 1.98, 1.61, 7.25, repro,
2007-05-14,0.26, 0.30, -5.21, 1.98, 1.59, 7.23, repro,
2007-05-15,-0.76, -0.31, -3.85, 1.94, 1.58, 7.18, repro,
2007-05-16,-0.44, -0.38, -4.36, 1.95, 1.59, 7.22, repro,
2007-05-17,-0.31, -0.87, -4.99, 1.97, 1.61, 7.28, repro,
2007-05-18,-1.07, -1.06, -6.05, 2.03, 1.67, 7.44, repro,
2007-05-19,-1.40, 0.27, -1.89, 1.99, 1.63, 7.32, repro,
2007-05-20,0.31, 1.08, 3.69, 2.01, 1.65, 7.39, repro,
2007-05-21,-0.93, -0.57, 3.44, 2.02, 1.64, 7.49, repro,
2007-05-22,0.13, -0.70, -3.31, 1.98, 1.61, 7.25, repro,
2007-05-23,0.16, -0.34, -2.32, 2.07, 1.69, 7.65, repro,
2007-05-24,-0.38, 0.05, -0.13, 2.12, 1.74, 7.83, repro,
2007-05-25,-0.85, 0.56, -9.41, 1.96, 1.58, 7.18, repro,
2007-05-26,-1.06, -0.03, -7.64, 1.99, 1.62, 7.29, repro,
2007-05-27,-0.36, -1.01, -0.56, 2.00, 1.63, 7.27, repro,
2007-05-28,-0.97, 0.36, 0.07, 1.98, 1.61, 7.20, repro,
2007-05-29,-1.36, 0.07, 0.43, 1.96, 1.59, 7.19, repro,
2007-05-30,-0.70, -0.78, -3.68, 2.03, 1.60, 7.32, repro,
2007-05-31,-0.78, -0.57, -6.67, 1.99, 1.61, 7.25, repro,
2007-06-01,-1.80, -1.61, -5.38, 1.96, 1.58, 7.16, repro,
2007-06-02,-1.10, 0.10, -0.23, 1.94, 1.58, 7.13, repro,
2007-06-03,-0.91, 0.17, -0.63, 1.95, 1.58, 7.18, repro,
2007-06-04,-0.74, -0.11, 1.02, 1.94, 1.58, 7.17, repro,
2007-06-05,-1.00, -0.66, 4.10, 2.00, 1.59, 7.31, repro,
2007-06-06,-1.82, -0.89, 2.42, 1.94, 1.58, 7.14, repro,
2007-06-07,-0.85, 0.32, 6.79, 1.95, 1.59, 7.19, repro,
2007-06-08,-1.55, 0.28, -1.57, 2.00, 1.60, 7.31, repro,
2007-06-09,-1.60, -0.67, -1.30, 1.97, 1.63, 7.30, repro,
2007-06-10,0.12, 0.33, 2.65, 2.01, 1.71, 7.51, repro,
2007-06-11,0.22, 0.79, -5.37, 2.00, 1.69, 7.42, repro,
2007-06-12,-0.07, -0.58, -2.63, 1.97, 1.67, 7.29, repro,
2007-06-13,-0.09, -1.34, -3.09, 2.00, 1.64, 7.31, repro,
2007-06-14,-0.20, -1.73, -10.05, 1.99, 1.63, 7.25, repro,
2007-06-15,0.04, 0.37, -3.55, 1.93, 1.58, 7.12, repro,
2007-06-16,-1.01, 0.01, -5.53, 1.95, 1.58, 7.14, repro,
2007-06-17,-1.62, 0.21, -1.87, 1.93, 1.58, 7.13, repro,
2007-06-18,-0.45, 0.86, -6.56, 1.94, 1.59, 7.17, repro,
2007-06-19,-1.22, 0.13, -3.91, 1.94, 1.58, 7.17, repro,
2007-06-20,-0.87, 0.03, -8.50, 1.93, 1.59, 7.16, repro,
2007-06-21,-0.89, 0.94, -4.54, 1.94, 1.58, 7.15, repro,
2007-06-22,-1.32, 0.37, -4.75, 1.94, 1.58, 7.15, repro,
2007-06-23,-1.81, -0.40, -5.58, 1.95, 1.58, 7.16, repro,
2007-06-24,-0.62, -0.63, -4.07, 1.97, 1.63, 7.38, repro,
2007-06-25,-0.70, -0.09, -2.48, 1.95, 1.58, 7.18, repro,
2007-06-26,0.08, -0.25, -7.92, 1.94, 1.58, 7.17, repro,
2007-06-27,-0.99, -0.65, -7.81, 1.94, 1.58, 7.20, repro,
2007-06-28,-0.67, 0.20, -11.09, 1.95, 1.59, 7.22, repro,
2007-06-29,-0.32, 0.96, -4.48, 1.94, 1.59, 7.21, repro,
2007-06-30,-0.18, 0.04, -8.47, 1.94, 1.58, 7.20, repro,
2007-07-01,-1.02, 0.67, -1.20, 1.93, 1.58, 7.16, repro,
2007-07-02,-0.53, -0.06, 1.09, 1.93, 1.59, 7.25, repro,
2007-07-03,-1.25, -0.06, -2.30, 1.95, 1.59, 7.25, repro,
2007-07-04,-1.53, 0.72, -2.62, 1.93, 1.57, 7.14, repro,
2007-07-05,-0.63, -0.13, -4.12, 1.94, 1.58, 7.18, repro,
2007-07-06,-0.67, 0.92, -4.34, 1.94, 1.59, 7.16, repro,
2007-07-07,-0.91, 0.68, -1.24, 1.94, 1.59, 7.22, repro,
2007-07-08,-1.47, 0.48, 0.86, 1.96, 1.59, 7.28, repro,
2007-07-09,-1.10, 0.66, -4.96, 1.95, 1.59, 7.20, repro,
2007-07-10,-2.91, -0.50, -5.57, 1.94, 1.58, 7.17, repro,
2007-07-11,-0.07, 0.45, -5.99, 1.94, 1.58, 7.13, repro,
2007-07-12,-0.72, 0.90, 1.29, 2.05, 1.71, 7.63, repro,
2007-07-13,-1.76, 0.97, -2.11, 1.98, 1.65, 7.40, repro,
2007-07-14,-0.30, 0.86, -5.00, 1.95, 1.59, 7.21, repro,
2007-07-15,0.40, -0.09, -4.95, 1.98, 1.64, 7.38, repro,
2007-07-16,-0.91, -0.92, -1.72, 1.97, 1.64, 7.36, repro,
2007-07-17,-0.32, -2.05, -10.07, 2.05, 1.77, 7.76, repro,
2007-07-18,-0.58, -0.12, -8.88, 1.97, 1.65, 7.31, repro,
2007-07-19,-1.49, 1.13, -3.18, 1.95, 1.59, 7.22, repro,
2007-07-20,-1.07, 0.04, -2.09, 1.97, 1.65, 7.43, repro,
2007-07-21,-0.83, -0.47, 2.55, 1.99, 1.66, 7.48, repro,
2007-07-22,-1.65, 0.21, -6.61, 1.99, 1.65, 7.42, repro,
2007-07-23,-0.23, 0.10, -4.40, 1.99, 1.65, 7.43, repro,
2007-07-24,-2.06, -0.10, 13.59, 1.95, 1.59, 7.24, repro,
2007-07-25,0.26, 0.31, 6.02, 1.99, 1.65, 7.44, repro,
2007-07-26,-1.24, 0.21, -3.15, 1.95, 1.59, 7.23, repro,
2007-07-27,-0.92, 1.76, 2.36, 1.99, 1.65, 7.47, repro,
2007-07-28,-0.92, -0.38, -3.75, 1.98, 1.66, 7.42, repro,
2007-07-29,-1.25, -0.21, 1.24, 1.98, 1.66, 7.42, repro,
2007-07-30,-1.79, 0.46, -2.92, 1.98, 1.66, 7.41, repro,
2007-07-31,-0.71, 0.44, -0.59, 1.97, 1.65, 7.36, repro,
2007-08-01,-1.21, 0.08, 0.26, 1.94, 1.59, 7.16, repro,
2007-08-02,-2.02, 0.35, 4.41, 1.95, 1.60, 7.26, repro,
2007-08-03,-0.75, 0.82, -5.47, 1.94, 1.59, 7.16, repro,
2007-08-04,-0.98, 0.38, -0.23, 1.92, 1.58, 7.08, repro,
2007-08-05,-1.64, -0.54, 6.71, 1.98, 1.59, 7.27, repro,
2007-08-06,-0.15, 1.04, 6.75, 1.97, 1.62, 7.34, repro,
2007-08-07,-0.32, 0.29, -1.08, 1.97, 1.62, 7.34, repro,
2007-08-08,-1.96, 0.94, 0.90, 1.96, 1.64, 7.28, repro,
2007-08-09,-0.30, 0.77, 1.04, 1.94, 1.59, 7.17, repro,
2007-08-10,-1.95, 0.54, 3.96, 1.92, 1.58, 7.10, repro,
2007-08-11,-1.43, 0.58, 0.79, 1.94, 1.58, 7.15, repro,
2007-08-12,-1.26, 0.05, 7.48, 1.94, 1.59, 7.17, repro,
2007-08-13,-1.13, 0.93, -3.87, 1.94, 1.58, 7.13, repro,
2007-08-14,0.43, 0.11, 8.12, 2.05, 1.70, 7.55, repro,
2007-08-15,-0.66, 0.77, 3.06, 2.04, 1.69, 7.49, repro,
2007-08-16,-0.99, -0.33, 5.11, 2.01, 1.65, 7.44, repro,
2007-08-17,-0.01, -0.37, 1.89, 2.05, 1.66, 7.59, repro,
2007-08-18,-0.24, -0.05, 3.88, 2.04, 1.68, 7.71, repro,
2007-08-19,-0.17, -0.38, -1.40, 2.21, 1.81, 8.45, repro,
2007-08-20,-0.08, 0.27, -1.32, 2.02, 1.64, 7.44, repro,
2007-08-21,-0.32, 0.11, 0.31, 2.06, 1.65, 7.57, repro,
2007-08-22,-0.73, 0.48, 2.43, 2.03, 1.65, 7.48, repro,
2007-08-23,0.12, 0.13, 3.25, 2.00, 1.60, 7.32, repro,
2007-08-24,-1.94, -0.36, 5.86, 2.09, 1.67, 7.65, repro,
2007-08-25,-0.54, 0.90, 0.52, 2.02, 1.66, 7.51, repro,
2007-08-26,-0.75, 0.82, 1.16, 2.05, 1.70, 7.66, repro,
2007-08-27,-1.43, -0.43, -1.52, 2.07, 1.71, 7.71, repro,
2007-08-28,-0.55, -0.42, 5.11, 2.03, 1.67, 7.55, repro,
2007-08-29,-1.00, 0.14, 0.31, 2.04, 1.67, 7.54, repro,
2007-08-30,-0.45, 0.65, -4.82, 2.13, 1.80, 8.19, repro,
2007-08-31,-1.34, -1.00, 2.52, 2.02, 1.66, 7.53, repro,
2007-09-01,-0.77, -0.09, 6.68, 2.03, 1.68, 7.61, repro,
2007-09-02,-1.51, -0.41, 2.95, 2.04, 1.67, 7.54, repro,
2007-09-03,-0.55, -0.58, 6.02, 2.03, 1.68, 7.56, repro,
2007-09-04,-1.25, -1.50, -2.03, 2.03, 1.67, 7.52, repro,
2007-09-05,-0.67, -0.81, 2.65, 2.05, 1.71, 7.64, repro,
2007-09-06,-1.52, -0.87, 2.29, 2.02, 1.66, 7.52, repro,
2007-09-07,-0.62, -0.76, 8.92, 2.04, 1.67, 7.58, repro,
2007-09-08,-0.99, -0.93, 3.76, 2.10, 1.75, 7.90, repro,
2007-09-09,-2.46, -0.24, 3.51, 2.11, 1.76, 7.94, repro,
2007-09-10,-2.10, -1.47, 7.67, 2.05, 1.66, 7.49, repro,
2007-09-11,-2.44, -0.61, 2.09, 2.05, 1.66, 7.52, repro,
2007-09-12,-0.10, -1.22, -2.02, 2.07, 1.71, 7.74, repro,
2007-09-13,-1.98, -0.78, 3.80, 2.16, 1.73, 7.94, repro,
2007-09-14,-0.67, -1.31, -3.01, 2.10, 1.73, 7.82, repro,
2007-09-15,-1.99, -0.84, 8.01, 2.22, 1.70, 8.09, repro,
2007-09-16,-1.38, -0.84, 4.62, 2.11, 1.67, 7.74, repro,
2007-09-17,-1.31, -1.17, 4.29, 2.12, 1.76, 7.93, repro,
2007-09-18,-1.15, 0.28, 0.49, 1.99, 1.66, 7.43, repro,
2007-09-19,-0.71, 0.02, 5.43, 1.96, 1.60, 7.23, repro,
2007-09-20,-0.14, 0.06, 3.24, 1.97, 1.59, 7.21, repro,
2007-09-21,-1.63, -0.72, 3.56, 2.03, 1.62, 7.52, repro,
2007-09-22,-2.13, -1.03, 12.26, 2.04, 1.63, 7.50, repro,
2007-09-23,-1.64, 0.09, 5.57, 2.03, 1.64, 7.45, repro,
2007-09-24,-1.99, 0.38, 2.73, 2.08, 1.67, 7.63, repro,
2007-09-25,-2.31, -1.94, 1.46, 2.03, 1.63, 7.50, repro,
2007-09-26,-1.57, -0.74, 5.81, 2.05, 1.61, 7.48, repro,
2007-09-27,-2.27, -0.51, 8.11, 2.03, 1.63, 7.53, repro,
2007-09-28,-2.04, -0.55, 6.52, 2.00, 1.68, 7.48, repro,
2007-09-29,-3.18, -1.38, 6.50, 2.03, 1.70, 7.58, repro,
2007-09-30,-0.65, -1.13, 6.01, 2.03, 1.70, 7.57, repro,
2007-10-01,-1.52, -1.18, 6.60, 2.03, 1.69, 7.53, repro,
2007-10-02,-1.02, -0.28, 5.83, 2.06, 1.73, 7.76, repro,
2007-10-03,-1.71, -0.74, 5.31, 2.06, 1.67, 7.71, repro,
2007-10-04,-1.57, 0.14, 7.89, 2.11, 1.68, 7.91, repro,
2007-10-05,-2.27, -0.43, 9.11, 2.06, 1.75, 7.87, repro,
2007-10-06,-1.57, -0.49, 3.85, 2.06, 1.71, 7.65, repro,
2007-10-07,-1.98, -0.41, 4.42, 2.06, 1.70, 7.66, repro,
2007-10-08,-1.93, -0.19, 1.22, 2.23, 1.79, 8.50, repro,
2007-10-09,-2.37, -0.75, 2.15, 2.16, 1.86, 8.30, repro,
2007-10-10,-3.65, -0.67, 10.24, 2.17, 1.77, 8.22, repro,
2007-10-11,-1.11, -0.24, 2.57, 2.02, 1.70, 7.61, repro,
2007-10-12,-1.83, -1.54, 6.31, 1.98, 1.66, 7.48, repro,
2007-10-13,-1.85, -1.85, 4.43, 1.95, 1.62, 7.32, repro,
2007-10-14,-1.88, -0.90, 3.01, 1.94, 1.62, 7.33, repro,
2007-10-15,-3.03, -0.55, 12.23, 1.95, 1.64, 7.41, repro,
2007-10-16,-1.90, -0.71, 7.08, 1.97, 1.65, 7.43, repro,